Regional Weather Roundup
Issued by NWS

Home | Current Version | Previous Version | Graphics & Text | Print | Product List | Glossary On
Versions: 1 2 3 4 5 6 7 8 9 10 11 12 13 14 15 16 17 18 19 20 21 22 23 24 25 26 27 28
000
ASUS45 KCYS 201010
RWRWY

WYOMING REGIONAL WEATHER ROUNDUP
NATIONAL WEATHER SERVICE CHEYENNE WY
400 AM MDT SUN APR 20 2014

NOTE:  "FAIR" INDICATES FEW OR NO CLOUDS BELOW 12,000 FEET
WITH NO SIGNIFICANT WEATHER AND/OR OBSTRUCTIONS TO VISIBILITY.

WYZ001-201100-
YELLOWSTONE NATIONAL PARK

CITY           SKY/WX    TMP DP  RH WIND       PRES   REMARKS
LK YELLOWSTONE   N/A     24  20  84 CALM      30.10S
W YELLOWSTONE  NOT AVBL

$$
WYZ002>013-054>058-071-098>099-201100-
NORTHERN WYOMING

CITY           SKY/WX    TMP DP  RH WIND       PRES   REMARKS
JACKSON          N/A     32  28  86 N6        30.07S WCI  26
CODY           PTCLDY    46  25  42 CALM      29.94S
GREYBULL       PTCLDY    41  30  65 SE6       29.94R
WORLAND        CLEAR     36  29  75 CALM      29.94R
SHERIDAN         N/A     41  32  70 SW8         N/A
BUFFALO        CLEAR     44  23  43 W5        29.94S
GILLETTE       CLEAR     45  33  63 VRB5      29.92S
HULETT         FAIR      46  32  57 MISG      29.93
NEWCASTLE      FAIR      48  32  53 E3        29.95

$$
WYZ014>020-022>026-101>103-201100-
CENTRAL WYOMING

CITY           SKY/WX    TMP DP  RH WIND       PRES   REMARKS
BIG PINEY      CLEAR     29  21  72 E7        30.12S WCI  22
PINEDALE       MOSUNNY   28  27  93 W3        30.13S
DUBOIS         FAIR      34  23  64 W8        30.05F WCI  27
LANDER         CLEAR     46  24  42 CALM      30.00R
RIVERTON       CLEAR     39  19  44 W7        30.01S WCI  34
CASPER         CLEAR     43  28  55 SW13      29.99R
DOUGLAS        CLEAR     40  34  79 CALM      29.99S

$$
WYZ021-027>030-104>119-201100-
SOUTHERN WYOMING

CITY           SKY/WX    TMP DP  RH WIND       PRES   REMARKS
EVANSTON       PTCLDY    42  29  59 S7        30.12S
KEMMERER       SUNNY     34  28  80 CALM      30.13R
FORT BRIDGER   FAIR      43  28  56 SW9       30.14S
ROCK SPRINGS   CLEAR     43  28  55 SW8       30.11S
DIXON          FAIR      35  32  88 CALM      30.15S
RAWLINS        CLEAR     43  34  70 SW10      30.09S
SARATOGA       FAIR      37  32  81 S6        30.13S WCI  33
LARAMIE        MOCLDY    34  30  85 SE9       30.10S WCI  27
CHEYENNE       CLEAR     42  36  79 W8        30.05S
TORRINGTON     CLEAR     44  37  76 E8        29.97F
PINE BLUFFS    FAIR      37  36  93 SW3       30.04F

$$



USA.gov is the U.S. government's official web portal to all federal, state and local government web resources and services.